>

Jackpot

Texas Poker Multi Jackpot System

Kini Telah hadir Jackpot SUPER ROYAL FLUSH

Kini Telah hadir Jackpot 2000 (khusus table VIP keatas).

Ikutilah global jackpot yang tersedia di system kami, dengan system jackpot terbaru dan pertama di indonesia, anda dapat membeli jackpot dengan harga 100 rupiah saja dan menangkan hadiahnya hingga puluhan juta rupiah.

Jackpot bukanlah suatu keharusan untuk dibeli, namun kami memberikan suatu fitur tambahan untuk member tercinta dari www.sumutpoker.com.

Terdapat tiga pilihan harga jackpot yang bisa anda beli yaitu :100,500,1000 dan 2000(khusus table VIP Keatas) rupiah.

Hadiah dari Multi jackpot system www.sumutpoker.com

  1. full house x 10 harga jackpot yang anda beli.
      (contoh:anda membeli 1000 maka:1000 X10 = 10.000)
  2. four of kind x 250 harga jackpot yang anda beli
      (contoh:anda membeli 1000 maka:1000 X250 = 250.000)
  3. Straight flush x 1200
      (contoh:anda membeli 1000 maka:1000 X1200 = 1.200.000)
  4. Royal flush x 10000 harga jackpot yang anda beli
      (contoh:anda membeli 1000 maka:1000 X10000 = 10.000.000)
  5. SUPER ROYAL FLUSH x 30000 harga jackpot yang anda beli
      (contoh:anda membeli 1000 maka:1000 X30000 = 30.000.000)

Kondisi kartu

  1. full house adalah kondisi kartu dimana kartu anda dan kartu tengah dengan total 7 kartu bisa mendapatkan nilai 5 kartu dengan kombinasi 1 tris(three of kind) dan 1 pair, contoh 3 kartu 10 dan 2 kartu 5
  2. Four of kind adalah kondisi kartu dimana kartu anda dan kartu tengah dengan total 7 kartu bisa mendapatkan nilai 5 kartu dengan kombinasi 4 kartu yang sama jumlah dan 1 kartu apapun juga contoh anda mendapatkan 4 buah kartu angka 3 dan 1 kartu apapun.
  3. Staright flush adalah kondisi kartu dimana kartu anda dan kartu tengah dengan total 7 kartu bisa mendapatkan nilai 5 kartu dengan kombinasi seri / staright dengan kembang yang sama contoh : urutan kartu dari angka 5, 6, 7, 8 , 9 10 dengan kembang yg sama misalnya as hati
  4. Royal flush adalah kondisi kartu dimana kartu anda dan kartu tengah dengan total 7 kartu bisa mendapatkan nilai 5 kartu dengan kombinasi seri / staright dengan kembang yang sama tetapi kartu tersebut haruslah dimulai dari 10. contoh 10, Queen, Jack, King dan aces dengan kembang yang sama
  5. Super Royal flush adalah kondisi kartu dimana Kedua kartu anda digabung dengan 3 kartu pertama meja haruslah royal flush. contoh kartu anda 10,Queen kembang sama dan 3 kartu pertama meja adalah Jack, King dan aces dengan kembang yang sama

Demikian adalah penjelasan dari Multi Jackpot www.sumutpoker.com terima kasih dan selamat bermain salam hoki dari kami

Texas Poker Jackpot Winner

TOP SUPER ROYAL FLUSH
No.TanggalNamaPriceWin
125/02 17:03BBBB099Super Royal flush6,000,000
225/02 15:07NACARISSuper Royal flush15,000,000
325/02 14:59S4MPEUSuper Royal flush15,000,000
425/02 10:35HOKYYY_777Super Royal flush6,000,000
525/02 06:14ARYAGANISuper Royal flush6,000,000
TOP ROYAL FLUSH
No.TanggalNamaPriceWin
125/02 20:31TENJOLAYRoyal flush1,000,000
225/02 20:20AYAMTOKRoyal flush5,000,000
325/02 20:19REVA7844Royal flush2,000,000
425/02 19:32BABEGARoyal flush5,000,000
525/02 19:29SRIWIJAYACRoyal flush2,000,000
TOP STRAIGHT FLUSH
No.TanggalNamaPriceWin
125/02 20:34LNHPCNYFOKStraight Flush240,000
225/02 20:34MIRZA2015Straight Flush2,400,000
325/02 20:33AND14KUYStraight Flush240,000
425/02 20:32FULLATTACKStraight Flush240,000
525/02 20:28G00DD4YYStraight Flush240,000
LATEST JACKPOT
No.TanggalNamaPriceWin
125/02 20:36THREE787Full House1,000
225/02 20:36DUNHILGIRLFull House2,000
325/02 20:36GFRFSFET2OFull House5,000
425/02 20:36TRIOKO889Full House5,000
525/02 20:36MAMASRADITFull House2,000
625/02 20:36M4MEN01Full House1,000
725/02 20:36C861AECCFull House1,000
825/02 20:36ASEEL85Full House5,000
925/02 20:36MAHMIN99Four Of A Kind500,000
1025/02 20:36CUNEX1921Full House2,000
1125/02 20:36GHAZ99Full House5,000
1225/02 20:36FLUSHPLOSFull House5,000
1325/02 20:36NAROHADE1Full House10,000
1425/02 20:36DPS081Full House10,000
1525/02 20:36AARRSSAAFull House5,000
1625/02 20:36POLICE_AAFour Of A Kind25,000
1725/02 20:36KALAPASSFull House2,000
1825/02 20:36K0M4ND0Four Of A Kind125,000
1925/02 20:36YDJUNIORFull House5,000
2025/02 20:36Y6G18OQGW9Full House10,000
2125/02 20:36CYBER_AAFull House2,000
2225/02 20:36NA11N99Full House2,000
2325/02 20:36HENTAI9Full House2,000
2425/02 20:36FAKEHOPE18Full House10,000
2525/02 20:36SUP011Full House2,000
2625/02 20:36REMANGARUTFull House10,000
2725/02 20:36UK27CFNXAHFull House5,000
2825/02 20:36SUSUHAMILFull House5,000
2925/02 20:36BAR0N919Full House2,000
3025/02 20:36JAYAMAINFull House10,000
3125/02 20:36BARCAL0NAFull House10,000
3225/02 20:36SEMPONG378Full House10,000
3325/02 20:36TEMPUR133Full House2,000
3425/02 20:36BULSIT00Full House2,000
3525/02 20:36THINKP4DFull House10,000
3625/02 20:36LAJU_LAKUEFull House2,000
3725/02 20:36ANJINK007Full House1,000
3825/02 20:36BAHSELANGFull House2,000
3925/02 20:36YUNITAHFour Of A Kind50,000
4025/02 20:36MERICA2Full House2,000
4125/02 20:35HAOP33Full House5,000
4225/02 20:35DICKY701Full House2,000
4325/02 20:35ARFAN75Full House2,000
4425/02 20:35OKOKMO86Full House1,000
4525/02 20:35NISSAAAFull House2,000
4625/02 20:35ANCOK00Full House1,000
4725/02 20:35ALANG_212Full House2,000
4825/02 20:35DODY9XFull House2,000
4925/02 20:35CHIBOTEAFull House1,000
5025/02 20:35UNDECIMA12Full House10,000

Domino Multi Jackpot System

Ikutilah global jackpot yang tersedia di system kami, dengan system jackpot terbaru dan pertama di indonesia, anda dapat membeli jackpot dengan harga 100 rupiah saja dan menangkan hadiahnya hingga puluhan juta rupiah.

Jackpot bukanlah suatu keharusan untuk dibeli, namun kami memberikan suatu fitur tambahan untuk member tercinta dari www.sumutpoker.com.

Terdapat tiga pilihan harga jackpot yang bisa anda beli yaitu :100,500 dan 1000 rupiah.

Hadiah dari Multi jackpot system www.sumutpoker.com

  1. Murni Kecil x 50 harga jackpot yang anda beli.
      (contoh:anda membeli 1000 maka:1000 X 50 = 50.000)
  2. Murni Besar x 50 harga jackpot yang anda beli
      (contoh:anda membeli 1000 maka:1000 X 50 = 50.000)
  3. BALAK x 100 harga jackpot yang anda beli
      (contoh:anda membeli 1000 maka:1000 X 100 = 100.000)
  4. ENAM DEWA x 6666 harga jackpot yang anda beli
      (contoh:anda membeli 1000 maka:1000 X 6666 = 6.666.000)

Demikian adalah penjelasan dari Multi Jackpot www.sumutpoker.com terima kasih dan selamat bermain salam hoki dari kami

Domino Jackpot Winner

TOP ENAM DEWA
No.TanggalNamaPriceWin
125/02 20:09D3WII999murni enam666,600
225/02 19:42BASSURA66murni enam3,333,000
325/02 17:51GATAK17murni enam6,666,000
425/02 17:11KEPLE008murni enam666,600
525/02 16:54TUSIRUNmurni enam666,600
TOP BALAK
No.TanggalNamaPriceWin
125/02 20:31JEXPOTDONGbalak100,000
225/02 20:31ROHID66balak10,000
325/02 20:30AYAYA33balak50,000
425/02 20:26C23IMUNG28690balak10,000
525/02 20:26ESGEPE3balak50,000
LATEST JACKPOT
No.TanggalNamaPriceWin
125/02 20:36COMPLO121murni kecil25,000
225/02 20:35AAAOK99murni besar50,000
325/02 20:34GRANAT2197murni kecil50,000
425/02 20:33MASJID1980murni besar5,000
525/02 20:33REMOT155murni kecil50,000
625/02 20:32IW4N98murni besar5,000
725/02 20:32MAMA624murni kecil25,000
825/02 20:31JEXPOTDONGbalak100,000
925/02 20:31VARO454647murni besar25,000
1025/02 20:31ROHID66balak10,000
1125/02 20:30AYAYA33balak50,000
1225/02 20:30KECUUmurni besar50,000
1325/02 20:30BUNDAA757murni besar25,000
1425/02 20:30ZORSmurni kecil5,000
1525/02 20:30ONTA1609murni besar50,000
1625/02 20:30FULLGHOSHmurni besar25,000
1725/02 20:29RKS_CRDmurni kecil25,000
1825/02 20:29GOKUE77murni kecil25,000
1925/02 20:27FALCAOFCmurni kecil50,000
2025/02 20:27AZ0505SMmurni besar50,000
2125/02 20:26C23IMUNG28690balak10,000
2225/02 20:26ESGEPE3balak50,000
2325/02 20:25WANUZ83JF0balak100,000
2425/02 20:25BAD50DDAmurni besar25,000
2525/02 20:25RAFZ02murni kecil5,000
2625/02 20:25AHMAD88997balak50,000
2725/02 20:25SG_BASTIANmurni besar25,000
2825/02 20:25ANOV1balak100,000
2925/02 20:24VALDO017murni besar50,000
3025/02 20:24ASSA841Kmurni besar5,000
3125/02 20:23PAMONmurni besar50,000
3225/02 20:23AJISAPURObalak100,000
3325/02 20:22QNET987balak50,000
3425/02 20:22FAFORIET99murni besar25,000
3525/02 20:22T0011634murni besar5,000
3625/02 20:22F3QA7F91LLmurni besar5,000
3725/02 20:21SG_BASTIANmurni kecil25,000
3825/02 20:21C1M0Nmurni besar5,000
3925/02 20:20TANTRA67murni kecil50,000
4025/02 20:19GEMBESSSmurni besar25,000
4125/02 20:19FRAMAD1993murni kecil25,000
4225/02 20:18EGIALFIANDmurni kecil5,000
4325/02 20:18ANDYMESSImurni besar50,000
4425/02 20:18COKREKKmurni kecil50,000
4525/02 20:17KROKET99murni besar25,000
4625/02 20:17MAYA233murni kecil50,000
4725/02 20:16SANGKAR_murni besar50,000
4825/02 20:15FJM6HJJA5Hbalak10,000
4925/02 20:15BLE77Slucky9925,000
5025/02 20:14IKIBB189murni kecil25,000

Ceme Multi Jackpot System

Jackpot dilihat dari gabungan kartu pemain dengan kartu bandar. Bandar harus membeli jackpot sebanyak jumlah player yang sedang duduk. Sebagai contoh bila terdapat 3 pemain duduk bermain, dan bandar memutuskan untuk membeli jackpot Rp 1.000, maka pada periode tersebut bandar akan membeli jackpot sebanyak 3xRp1.000 = Rp3.000.

Jackpot bukanlah suatu keharusan untuk dibeli, namun kami memberikan suatu fitur tambahan untuk member tercinta dari www.sumutpoker.com.

Terdapat tiga pilihan harga jackpot yang bisa anda beli yaitu :100,500 dan 1000 rupiah.

Hadiah dari Multi jackpot system www.sumutpoker.com

  1. Murni Kecil x 50 harga jackpot yang anda beli.
      (contoh:anda membeli 1000 maka:1000 X 50 = 50.000)
  2. Murni Besar x 50 harga jackpot yang anda beli
      (contoh:anda membeli 1000 maka:1000 X 50 = 50.000)
  3. BALAK x 200 harga jackpot yang anda beli
      (contoh:anda membeli 1000 maka:1000 X 200 = 200.000)
  4. ENAM DEWA x 6666 harga jackpot yang anda beli
      (contoh:anda membeli 1000 maka:1000 X 6666 = 6.666.000)

Demikian adalah penjelasan dari Multi Jackpot www.sumutpoker.com terima kasih dan selamat bermain salam hoki dari kami

Ceme Jackpot Winner

TOP ENAM DEWA
No.TanggalNamaPriceWin
125/02 20:06NINI230616murni enam6,666,000
225/02 20:01UWATEREEEEmurni enam666,600
325/02 19:59HUANGZ1murni enam666,600
425/02 19:28ZYZYXXXmurni enam6,666,000
525/02 19:22HARY1986murni enam6,666,000
TOP BALAK
No.TanggalNamaPriceWin
125/02 20:36JENDTRY12balak200,000
225/02 20:36KERASDUNKSbalak20,000
325/02 20:36BIKSO555balak100,000
425/02 20:34LILUS303balak100,000
525/02 20:34IDN1388705balak200,000
LATEST JACKPOT
No.TanggalNamaPriceWin
125/02 20:36JENDTRY12balak200,000
225/02 20:36KERASDUNKSbalak20,000
325/02 20:36KHAUIK9murni kecil50,000
425/02 20:36ADIJAGO86murni kecil50,000
525/02 20:36KUSNADI935murni besar50,000
625/02 20:36FERY25murni kecil25,000
725/02 20:36BIKSO555balak100,000
825/02 20:35EKO197murni besar50,000
925/02 20:35RANIFATIHmurni besar5,000
1025/02 20:35BOWOSS22murni kecil25,000
1125/02 20:35MARTUNIS41murni besar50,000
1225/02 20:35KUEH86murni besar50,000
1325/02 20:35BOBOL34murni kecil5,000
1425/02 20:35KHAUIK9murni besar50,000
1525/02 20:35DEWASUNNmurni besar50,000
1625/02 20:35CULUNZERmurni kecil5,000
1725/02 20:35TAMYEZ999murni besar25,000
1825/02 20:35VEGARNEWmurni besar50,000
1925/02 20:35QQDESKYmurni kecil5,000
2025/02 20:35MIXJEGERmurni kecil25,000
2125/02 20:35HUANGZ1murni kecil50,000
2225/02 20:35P4N3NF45murni kecil5,000
2325/02 20:35RVLLZXEG86murni kecil5,000
2425/02 20:35EJAX818murni besar25,000
2525/02 20:35SENTUH21murni besar25,000
2625/02 20:35SERGI12murni kecil50,000
2725/02 20:35PIRIYOmurni kecil5,000
2825/02 20:34HAQIKAT07murni besar50,000
2925/02 20:34LONTOP09murni besar50,000
3025/02 20:34KADAL9QIUmurni besar5,000
3125/02 20:34SANGI37812murni besar25,000
3225/02 20:34AASBGTRmurni besar5,000
3325/02 20:34LILUS303balak100,000
3425/02 20:34IDN1388705balak200,000
3525/02 20:34HIROSHIMA8murni kecil50,000
3625/02 20:34MIEAYAM09balak200,000
3725/02 20:34BIOHAZARDmurni kecil50,000
3825/02 20:34MPEKKUC7murni kecil50,000
3925/02 20:34BAJANG4Dmurni kecil25,000
4025/02 20:33SENDOK87murni kecil50,000
4125/02 20:33SENDOK87murni kecil50,000
4225/02 20:33SENDOK87murni kecil50,000
4325/02 20:33KRONIS19_7murni kecil50,000
4425/02 20:33BARRE55balak200,000
4525/02 20:33VEGARNEWmurni kecil50,000
4625/02 20:33KACRUT29murni kecil25,000
4725/02 20:33KENCLENGSmurni kecil25,000
4825/02 20:33NOPI123456murni besar50,000
4925/02 20:33BOA304murni kecil25,000
5025/02 20:33MINDIAS123murni besar5,000